WX6HNX-2 Weather Reports


Display with metric or nautical units.
time (UTC)temp
F
wind
direction
speed
MPH
gust
MPH
rain 1hr
in
rain 24hr
in
rain mn
in
humidity
%
barometer
mb
20260506091401 50 0 0.0 0.0 0.00 0.06 0.00 90 1017.6
20260506090601 51 0 0.0 0.0 0.00 0.06 0.00 90 1017.7
20260506090201 51 0 0.0 0.0 0.00 0.06 0.00 90 1017.7
20260506085401 51 0 0.0 0.0 0.00 0.06 0.00 90 1017.7
20260506085001 51 0 0.0 0.0 0.00 0.06 0.00 90 1017.7
20260506084601 51 0 0.0 0.0 0.00 0.06 0.00 90 1017.7
20260506084201 51 0 0.0 0.0 0.00 0.06 0.00 90 1017.7
20260506083801 51 0 0.0 0.0 0.00 0.06 0.00 90 1017.7
20260506083401 51 0 0.0 0.0 0.00 0.06 0.00 91 1017.9
20260506083001 51 0 0.0 0.0 0.00 0.06 0.00 91 1018.0
20260506082601 51 0 0.0 0.0 0.00 0.06 0.00 91 1018.2
20260506082201 51 0 0.0 0.0 0.00 0.06 0.00 91 1018.3
20260506081801 51 0 0.0 0.0 0.00 0.06 0.00 90 1018.4
20260506081401 51 0 0.0 0.0 0.00 0.06 0.00 90 1018.3
20260506081001 51 0 0.0 0.0 0.00 0.06 0.00 90 1018.3
20260506080601 51 0 0.0 0.0 0.00 0.06 0.00 90 1018.2
20260506080201 51 0 0.0 0.0 0.00 0.06 0.00 90 1018.2
20260506073401 52 0 0.0 0.0 0.00 0.06 0.00 90 1018.2
20260506073001 52 0 0.0 0.0 0.00 0.06 0.00 90 1018.0
20260506072601 52 0 0.0 0.0 0.00 0.06 0.00 90 1018.0
20260506072201 52 0 0.0 0.0 0.00 0.06 0.00 90 1018.0
20260506071801 52 0 0.0 0.0 0.00 0.06 0.00 90 1018.0
20260506071401 52 0 0.0 0.0 0.00 0.06 0.00 90 1017.9
20260506071001 52 0 0.0 0.0 0.00 0.06 0.00 89 1017.8
20260506070601 52 0 0.0 0.0 0.00 0.06 0.00 89 1017.7
20260506070201 52 0 0.0 0.0 0.00 0.06 0.00 89 1017.7
20260506062201 52 0 0.0 1.0 0.00 0.06 0.06 87 1017.2
20260506061801 52 0 0.0 0.0 0.00 0.06 0.06 87 1017.2
20260506061401 52 0 0.0 0.0 0.00 0.06 0.06 87 1017.1
20260506060909 53 0 0.0 2.0 0.00 0.06 0.06 87 1017.0
20260506060509 53 0 0.0 1.0 0.00 0.06 0.06 88 1017.1
20260506060109 53 0 0.0 2.0 0.00 0.06 0.06 88 1017.0
20260506051133 53 0 0.0 0.0 0.00 0.06 0.06 88 1017.0
20260506050732 53 0 0.0 0.0 0.00 0.06 0.06 88 1017.0
20260506050333 53 0 0.0 0.0 0.00 0.06 0.06 88 1016.9
20260506045132 53 0 0.0 0.0 0.00 0.06 0.06 87 1016.8
20260506044547 53 0 0.0 0.0 0.00 0.06 0.06 87 1016.7
20260506044147 53 0 0.0 0.0 0.00 0.06 0.06 87 1016.7
20260506043747 53 0 0.0 0.0 0.00 0.06 0.06 87 1016.6
20260506043347 53 0 0.0 0.0 0.00 0.06 0.06 87 1016.6
20260506042947 53 0 0.0 0.0 0.00 0.06 0.06 87 1016.5
20260506042547 53 0 0.0 0.0 0.00 0.06 0.06 87 1016.5
20260506041747 54 0 0.0 0.0 0.00 0.06 0.06 87 1016.5
20260506040947 54 0 0.0 0.0 0.00 0.06 0.06 87 1016.3
20260506040547 54 0 0.0 0.0 0.00 0.06 0.06 86 1016.3
20260506035429 54 0 0.0 0.0 0.00 0.06 0.06 85 1016.1
20260506035030 54 0 0.0 0.0 0.00 0.06 0.06 85 1015.9
20260506034629 54 0 0.0 0.0 0.00 0.06 0.06 85 1015.9
20260506033830 54 0 0.0 0.0 0.00 0.06 0.06 85 1015.8
20260506033429 54 0 0.0 0.0 0.00 0.06 0.06 84 1015.7
20260506033030 54 0 0.0 0.0 0.00 0.06 0.06 84 1015.7
20260506032629 54 0 0.0 0.0 0.00 0.06 0.06 83 1015.6
20260506032229 54 0 0.0 0.0 0.00 0.06 0.06 83 1015.5
20260506031830 54 0 0.0 0.0 0.00 0.06 0.06 83 1015.5
20260506031430 54 0 0.0 0.0 0.00 0.06 0.06 83 1015.5
20260506031029 55 0 0.0 0.0 0.00 0.06 0.06 83 1015.4
20260506024629 55 0 0.0 0.0 0.00 0.06 0.06 81 1015.2
20260506023430 55 0 0.0 0.0 0.00 0.06 0.06 80 1015.2
20260506015429 55 0 0.0 1.0 0.00 0.06 0.06 78 1015.0
20260506015029 56 0 0.0 1.0 0.00 0.06 0.06 79 1015.0
20260506014629 55 0 0.0 0.0 0.00 0.06 0.06 79 1015.1
20260506013954 55 0 0.0 3.0 0.00 0.06 0.06 79 1015.0
20260506013554 55 51 1.0 4.0 0.00 0.06 0.06 79 1015.0
20260506013154 55 51 2.0 4.0 0.00 0.06 0.06 79 1015.1
20260506012754 55 51 1.0 3.0 0.00 0.06 0.06 78 1015.1
20260506012354 56 51 1.0 3.0 0.00 0.06 0.06 79 1015.0
20260506011955 55 0 0.0 4.0 0.00 0.06 0.06 79 1015.1
20260506011154 55 50 3.0 6.0 0.00 0.06 0.06 79 1015.2
20260506010754 55 0 0.0 5.0 0.00 0.06 0.06 80 1015.2
20260506010354 55 48 1.0 6.0 0.00 0.06 0.06 81 1015.1
20260506005954 55 48 3.0 8.0 0.00 0.06 0.06 80 1015.2
20260506005554 55 44 4.0 8.0 0.00 0.06 0.06 80 1015.3
20260506005154 55 20 5.0 8.0 0.00 0.06 0.06 80 1015.3
20260506004754 55 256 3.0 7.0 0.00 0.06 0.06 80 1015.3
20260506004354 55 253 2.0 5.0 0.00 0.06 0.06 81 1015.3
20260506003954 55 253 2.0 4.0 0.00 0.06 0.06 80 1015.3
20260506003554 55 253 2.0 4.0 0.00 0.06 0.06 80 1015.3
20260506003022 55 253 3.0 8.0 0.00 0.06 0.06 79 1015.4
20260506002623 55 251 4.0 7.0 0.00 0.06 0.06 80 1015.3
20260506001822 55 249 3.0 7.0 0.00 0.06 0.06 80 1015.3
20260506001422 55 248 3.0 5.0 0.00 0.06 0.06 79 1015.3
20260506000622 55 248 3.0 8.0 0.00 0.06 0.06 79 1015.4
20260506000222 55 246 2.0 7.0 0.00 0.06 0.06 78 1015.3
20260505235823 56 246 3.0 7.0 0.00 0.06 0.06 78 1015.3
20260505235422 56 246 2.0 7.0 0.00 0.06 0.06 78 1015.1
20260505235022 56 246 1.0 5.0 0.00 0.06 0.06 78 1015.1
20260505234622 56 246 2.0 5.0 0.00 0.06 0.06 77 1015.1
20260505234222 56 246 2.0 5.0 0.00 0.06 0.06 77 1015.1
20260505233822 56 246 2.0 5.0 0.00 0.06 0.06 77 1015.2
20260505233422 56 0 0.0 7.0 0.00 0.06 0.06 76 1015.1
20260505233022 56 246 2.0 7.0 0.00 0.06 0.06 75 1015.1
20260505232622 56 246 3.0 7.0 0.00 0.06 0.06 76 1015.2
20260505232222 56 246 2.0 4.0 0.00 0.06 0.06 77 1015.1
20260505231822 56 246 1.0 4.0 0.00 0.06 0.06 75 1015.0
20260505231422 56 246 2.0 4.0 0.00 0.06 0.06 75 1015.0
20260505231022 56 0 0.0 3.0 0.00 0.06 0.06 75 1015.0
20260505230622 56 0 0.0 3.0 0.00 0.06 0.06 75 1015.0
20260505230222 56 246 1.0 3.0 0.00 0.06 0.06 75 1015.0
20260505225823 56 0 0.0 2.0 0.00 0.06 0.06 75 1015.0
20260505225422 56 0 0.0 2.0 0.00 0.06 0.06 74 1015.0
20260505224916 56 0 0.0 4.0 0.00 0.06 0.06 73 1015.0
20260505224516 56 246 1.0 4.0 0.00 0.06 0.06 73 1015.0
20260505224116 56 246 2.0 4.0 0.00 0.06 0.06 75 1015.0
20260505223716 56 0 0.0 0.0 0.00 0.06 0.06 75 1015.0
20260505223316 56 0 0.0 0.0 0.00 0.06 0.06 75 1015.0
20260505222916 56 0 0.0 0.0 0.00 0.06 0.06 75 1015.1
20260505222328 56 0 0.0 5.0 0.00 0.06 0.06 73 1015.1
20260505221928 56 246 2.0 5.0 0.00 0.06 0.06 74 1015.2
20260505221528 56 246 1.0 5.0 0.00 0.06 0.06 76 1015.1
20260505220800 56 246 1.0 5.0 0.00 0.06 0.06 75 1015.1
20260505220000 56 246 3.0 5.0 0.00 0.06 0.06 75 1015.2
20260505215600 56 246 2.0 5.0 0.00 0.06 0.06 75 1015.2
20260505214800 56 246 1.0 3.0 0.00 0.06 0.06 77 1015.0
20260505213433 56 246 1.0 3.0 0.00 0.06 0.06 77 1015.1
20260505212232 56 0 0.0 3.0 0.00 0.06 0.06 80 1015.1
20260505211432 55 246 1.0 4.0 0.00 0.06 0.06 79 1015.3
20260505211033 55 245 1.0 5.0 0.00 0.06 0.06 78 1015.2
20260505210632 55 245 2.0 5.0 0.00 0.06 0.06 78 1015.1
20260505210233 56 245 2.0 5.0 0.00 0.06 0.06 77 1015.1
20260505205832 56 0 0.0 2.0 0.00 0.06 0.06 79 1015.0
20260505205433 55 0 0.0 2.0 0.00 0.06 0.06 78 1014.9
20260505204632 55 0 0.0 8.0 0.00 0.06 0.06 76 1014.8
20260505204233 55 240 4.0 8.0 0.00 0.06 0.06 76 1014.8
20260505203833 56 234 5.0 8.0 0.00 0.06 0.06 77 1014.8
20260505203433 56 252 5.0 8.0 0.00 0.06 0.06 77 1014.8
20260505203033 56 261 3.0 6.0 0.00 0.06 0.06 78 1014.9
20260505202633 56 261 2.0 6.0 0.00 0.06 0.06 78 1014.9
20260505202233 56 261 3.0 6.0 0.00 0.06 0.06 78 1014.9
20260505201832 56 261 2.0 6.0 0.00 0.06 0.06 78 1014.9
20260505201432 56 261 2.0 8.0 0.00 0.06 0.06 78 1014.9
20260505201032 56 262 1.0 8.0 0.00 0.06 0.06 78 1015.0
20260505200633 56 0 0.0 8.0 0.00 0.06 0.06 80 1014.9
20260505200233 56 0 0.0 8.0 0.00 0.06 0.06 79 1014.9
20260505195833 56 260 3.0 8.0 0.00 0.06 0.06 79 1015.0
20260505195433 56 260 1.0 8.0 0.00 0.06 0.06 79 1015.0
20260505195032 56 260 1.0 9.0 0.00 0.07 0.06 78 1015.0
20260505194632 56 260 4.0 9.0 0.00 0.07 0.06 77 1015.0
20260505194233 56 261 4.0 9.0 0.00 0.07 0.06 77 1015.1
20260505193432 57 0 0.0 8.0 0.00 0.08 0.06 78 1015.0
20260505193032 57 259 3.0 8.0 0.00 0.08 0.06 76 1015.0
20260505192632 57 259 2.0 7.0 0.00 0.08 0.06 78 1014.9
20260505192232 57 0 0.0 9.0 0.00 0.08 0.06 79 1014.8
20260505191832 57 260 1.0 9.0 0.00 0.08 0.06 77 1014.8
20260505191432 57 257 4.0 9.0 0.00 0.08 0.06 76 1014.8
20260505191032 57 0 0.0 5.0 0.00 0.09 0.06 78 1014.8
20260505190632 57 0 0.0 5.0 0.00 0.09 0.06 78 1014.8
20260505190232 57 255 2.0 8.0 0.00 0.09 0.06 78 1014.9
20260505185832 57 255 2.0 9.0 0.00 0.09 0.06 79 1014.9
20260505185432 57 254 3.0 9.0 0.00 0.09 0.06 79 1014.8
20260505184932 57 250 1.0 7.0 0.00 0.09 0.06 79 1014.8
20260505184532 56 248 1.0 7.0 0.00 0.09 0.06 79 1014.8
20260505184132 56 248 2.0 7.0 0.00 0.09 0.06 81 1014.9
20260505183732 56 0 0.0 4.0 0.00 0.09 0.06 81 1014.8
20260505183332 56 248 1.0 8.0 0.00 0.09 0.06 82 1014.9
20260505182932 56 248 2.0 9.0 0.00 0.09 0.06 81 1014.8
20260505182533 56 245 3.0 9.0 0.00 0.09 0.06 80 1014.8
20260505182132 56 244 4.0 9.0 0.00 0.09 0.06 80 1014.8
20260505181732 56 216 3.0 8.0 0.00 0.09 0.06 81 1014.9
20260505181332 56 0 0.0 11.0 0.00 0.09 0.06 82 1014.9
20260505180932 56 245 4.0 11.0 0.00 0.10 0.06 82 1014.8
20260505180132 56 271 3.0 10.0 0.00 0.10 0.06 83 1014.6
20260505175732 56 260 6.0 10.0 0.00 0.10 0.06 84 1014.6
20260505175332 56 255 3.0 10.0 0.00 0.10 0.06 86 1014.6
20260505174932 56 253 3.0 8.0 0.00 0.10 0.06 86 1014.6
20260505174132 54 254 4.0 8.0 0.00 0.10 0.06 87 1014.5
20260505173732 54 254 2.0 8.0 0.00 0.10 0.06 86 1014.4
20260505173332 54 252 3.0 8.0 0.00 0.10 0.06 86 1014.3
20260505172932 54 247 4.0 8.0 0.00 0.10 0.06 87 1014.3
20260505172532 54 246 4.0 9.0 0.00 0.10 0.06 87 1014.2
20260505172132 54 263 4.0 9.0 0.00 0.10 0.06 87 1014.2
20260505171732 54 260 5.0 9.0 0.00 0.10 0.06 87 1014.1
20260505171332 54 252 3.0 10.0 0.00 0.10 0.06 87 1014.0
20260505170532 54 239 6.0 10.0 0.00 0.10 0.06 88 1013.8
20260505170132 54 242 7.0 10.0 0.00 0.10 0.06 88 1013.9
20260505165732 54 250 2.0 4.0 0.00 0.10 0.06 88 1013.8
20260505165332 54 0 0.0 4.0 0.00 0.10 0.06 88 1013.9
20260505164532 54 250 2.0 5.0 0.00 0.10 0.06 90 1013.8
20260505164132 54 250 1.0 5.0 0.00 0.10 0.06 90 1013.8
20260505163732 54 250 3.0 5.0 0.00 0.10 0.06 92 1013.9
20260505163332 54 0 0.0 5.0 0.00 0.10 0.06 92 1013.9
20260505162932 53 250 1.0 5.0 0.00 0.10 0.06 92 1013.9
20260505162532 53 250 2.0 5.0 0.00 0.10 0.06 93 1013.9
20260505162132 52 250 2.0 5.0 0.00 0.10 0.06 93 1013.9
20260505161732 52 250 1.0 3.0 0.00 0.10 0.06 93 1013.9
20260505161332 52 250 2.0 3.0 0.00 0.10 0.06 94 1013.8
20260505160932 51 0 0.0 3.0 0.00 0.10 0.06 93 1013.7
20260505160532 51 250 1.0 3.0 0.00 0.10 0.06 93 1013.7
20260505153118 51 250 2.0 4.0 0.00 0.10 0.06 94 1013.8
20260505152718 51 0 0.0 3.0 0.00 0.10 0.06 94 1013.8
20260505152317 51 0 0.0 3.0 0.00 0.10 0.06 94 1013.8
20260505151517 51 250 1.0 3.0 0.00 0.10 0.06 94 1013.8
20260505150717 51 0 0.0 3.0 0.00 0.10 0.06 94 1013.8
20260505150317 50 0 0.0 3.0 0.00 0.10 0.06 94 1013.7
20260505124717 49 0 0.0 0.0 0.03 0.10 0.05 93 1013.0
20260505124317 49 0 0.0 0.0 0.03 0.10 0.05 93 1013.0
20260505123917 49 0 0.0 0.0 0.03 0.10 0.05 93 1012.9
20260505123517 49 0 0.0 0.0 0.02 0.09 0.04 93 1012.9
20260505122902 49 0 0.0 0.0 0.03 0.09 0.04 93 1013.0
20260505122502 49 0 0.0 0.0 0.03 0.09 0.04 93 1013.0
20260505122102 49 0 0.0 0.0 0.03 0.09 0.04 93 1012.9
20260505121702 49 0 0.0 0.0 0.03 0.09 0.04 93 1012.8
20260505121302 49 0 0.0 0.0 0.03 0.09 0.04 93 1012.9
20260505120902 49 0 0.0 0.0 0.03 0.09 0.04 93 1012.9
20260505120502 49 0 0.0 0.0 0.02 0.08 0.03 93 1012.9
20260505115702 49 0 0.0 0.0 0.02 0.08 0.03 93 1012.9
20260505115304 49 0 0.0 0.0 0.03 0.08 0.03 93 1012.9
20260505114902 50 0 0.0 0.0 0.02 0.07 0.02 93 1012.8
20260505114502 50 0 0.0 0.0 0.02 0.07 0.02 93 1012.8
20260505113702 50 0 0.0 0.0 0.02 0.07 0.02 93 1012.8
20260505113302 50 0 0.0 0.0 0.01 0.06 0.01 93 1012.8
20260505112902 50 0 0.0 0.0 0.01 0.06 0.01 93 1012.8
20260505112548 50 0 0.0 0.0 0.01 0.06 0.01 93 1012.8
20260505112502 50 0 0.0 0.0 0.01 0.06 0.01 93 1012.8
20260505111702 50 0 0.0 0.0 0.01 0.06 0.01 93 1012.8
20260505110902 50 0 0.0 0.0 0.01 0.06 0.01 93 1012.8
20260505110502 50 0 0.0 0.0 0.01 0.06 0.01 93 1012.9
20260505101830 50 0 0.0 0.0 0.00 0.05 0.00 93 1012.8
20260505101430 50 0 0.0 0.0 0.00 0.05 0.00 93 1012.8
20260505101030 50 0 0.0 0.0 0.00 0.05 0.00 93 1012.7
20260505100630 50 0 0.0 0.0 0.00 0.05 0.00 92 1012.8
20260505100230 50 0 0.0 0.0 0.00 0.05 0.00 93 1012.7
20260505095830 50 0 0.0 0.0 0.00 0.05 0.00 93 1012.7
20260505095430 50 0 0.0 0.0 0.00 0.05 0.00 93 1012.8
20260505094630 50 0 0.0 0.0 0.00 0.05 0.00 93 1012.8
20260505094230 50 0 0.0 0.0 0.00 0.05 0.00 93 1012.8
20260505093830 50 0 0.0 0.0 0.00 0.05 0.00 93 1012.8
20260505093430 50 0 0.0 0.0 0.00 0.05 0.00 93 1012.7
20260505093030 50 0 0.0 0.0 0.00 0.05 0.00 92 1012.8
20260505092630 50 0 0.0 0.0 0.00 0.05 0.00 92 1012.9
20260505092230 50 0 0.0 0.0 0.00 0.05 0.00 92 1012.9
20260505091830 50 0 0.0 0.0 0.00 0.05 0.00 92 1012.9